Terug naar catalogus

ONEWEB-0602

ActiefCommunicatiePO
NORAD 54666·PAYLOAD·🇬🇧 United Kingdom

Gelanceerd Dec 8, 2022 vanaf Cape Canaveral Space Force Station

Loading…

Volgende Passages (komende 24 uur)

TLE

VersSource: CelesTrak SupGP

Epoch: Sep 14, 2026, 17:05 UTC

1 54666C 22166AA  26257.71234213  .00001686  00000+0  40864-2 0  2570
2 54666  87.9268 226.1765 0002334  80.2756 341.3939 13.21823024    17

Volg ONEWEB-0602 in realtime met AllMySat

Download on the App Store